When you browse on this site, cookies collect data to enhance your experience and personalize the content and advertising you see.
Visit our Privacy Policy to learn more. By continuing to use the site, you agree to this use of cookies and data.
  • In Austria
  • List of Countries
  • For 7 days
  • Water Temperature
  • Weather Map
  • News
  • Weather Widgets
  • user-avatar
    Login

    Hourly Weather Bregenz

    Today, 15 September, Sunday

    Time Temperature Precipitation Wind Pressure Humidity
    00:00 +12°C° 0 mm 1 mps 654 mmHg 95%
    01:00 +12°C° 0 mm 1 mps 654 mmHg 94%
    02:00 +11°C° 0 mm 1 mps 654 mmHg 94%
    03:00 +11°C° 0 mm 1 mps 654 mmHg 93%
    04:00 +11°C° 0 mm 1 mps 653 mmHg 93%
    05:00 +11°C° 0 mm 1 mps 653 mmHg 92%
    06:00 +11°C° 0 mm 1 mps 653 mmHg 91%
    07:00 +12°C° 0 mm 1 mps 653 mmHg 90%
    08:00 +14°C° 0 mm 1 mps 654 mmHg 82%
    09:00 +18°C° 0 mm 1 mps 655 mmHg 74%
    10:00 +20°C° 0 mm 1 mps 655 mmHg 66%
    11:00 +21°C° 0 mm 1 mps 655 mmHg 63%
    12:00 +22°C° 0 mm 1 mps 655 mmHg 60%
    13:00 +22°C° 0 mm 1 mps 655 mmHg 57%
    14:00 +22°C° 0 mm 1 mps 655 mmHg 59%
    15:00 +22°C° 0 mm 1 mps 654 mmHg 61%
    16:00 +22°C° 0 mm 1 mps 654 mmHg 63%
    17:00 +20°C° 0 mm 1 mps 653 mmHg 71%
    18:00 +16°C° 0 mm 1 mps 653 mmHg 80%
    19:00 +13°C° 0 mm 0 mps 652 mmHg 89%
    20:00 +14°C° 0 mm 1 mps 652 mmHg 89%
    21:00 +13°C° 0 mm 1 mps 652 mmHg 88%
    22:00 +13°C° 0 mm 1 mps 652 mmHg 88%
    23:00 +13°C° 0 mm 1 mps 652 mmHg 88%

    Tomorrow, 16 September, Monday

    Time Temperature Precipitation Wind Pressure Humidity
    00:00 +13°C° 0 mm 1 mps 652 mmHg 88%
    01:00 +12°C° 0 mm 1 mps 652 mmHg 88%
    02:00 +12°C° 0 mm 1 mps 651 mmHg 88%
    03:00 +12°C° 0 mm 1 mps 651 mmHg 87%
    04:00 +12°C° 0 mm 1 mps 651 mmHg 87%
    05:00 +12°C° 0 mm 1 mps 650 mmHg 86%
    06:00 +12°C° 0 mm 1 mps 650 mmHg 86%
    07:00 +13°C° 0 mm 1 mps 650 mmHg 85%
    08:00 +15°C° 0 mm 1 mps 651 mmHg 78%
    09:00 +18°C° 0 mm 1 mps 652 mmHg 70%
    10:00 +21°C° 0 mm 1 mps 653 mmHg 63%
    11:00 +21°C° 0.1 mm 1 mps 652 mmHg 61%
    12:00 +22°C° 0.1 mm 1 mps 652 mmHg 59%
    13:00 +21°C° 0.1 mm 2 mps 652 mmHg 56%
    14:00 +21°C° 0.2 mm 2 mps 652 mmHg 60%
    15:00 +20°C° 0.2 mm 2 mps 651 mmHg 64%
    16:00 +21°C° 0.2 mm 1 mps 651 mmHg 67%
    17:00 +19°C° 0.4 mm 1 mps 650 mmHg 75%
    18:00 +16°C° 0.4 mm 1 mps 650 mmHg 82%
    19:00 +14°C° 0.4 mm 1 mps 649 mmHg 89%
    20:00 +13°C° 0.1 mm 1 mps 649 mmHg 90%
    21:00 +13°C° 0.1 mm 1 mps 649 mmHg 91%
    22:00 +12°C° 0.1 mm 1 mps 649 mmHg 92%
    23:00 +12°C° 0 mm 1 mps 649 mmHg 92%

    Day after tomorrow, 17 September, Tuesday

    Time Temperature Precipitation Wind Pressure Humidity
    00:00 +10°C° 0 mm 0 mps 649 mmHg 93%
    01:00 +10°C° 0 mm 0 mps 649 mmHg 94%
    02:00 +10°C° 0 mm 0 mps 648 mmHg 94%
    03:00 +9°C° 0 mm 0 mps 648 mmHg 94%
    04:00 +9°C° 0 mm 0 mps 648 mmHg 94%
    05:00 +9°C° 0 mm 0 mps 648 mmHg 94%
    06:00 +9°C° 0 mm 0 mps 648 mmHg 93%
    07:00 +10°C° 0 mm 0 mps 648 mmHg 93%
    08:00 +12°C° 0.1 mm 1 mps 648 mmHg 90%
    09:00 +13°C° 0.1 mm 1 mps 649 mmHg 87%
    10:00 +14°C° 0.1 mm 1 mps 649 mmHg 85%
    11:00 +15°C° 0.1 mm 1 mps 649 mmHg 81%
    12:00 +15°C° 0.1 mm 1 mps 649 mmHg 78%
    13:00 +16°C° 0.1 mm 2 mps 649 mmHg 74%
    14:00 +16°C° 0.1 mm 2 mps 649 mmHg 74%
    15:00 +15°C° 0.1 mm 2 mps 649 mmHg 74%
    16:00 +15°C° 0.1 mm 2 mps 648 mmHg 74%
    17:00 +14°C° 0 mm 2 mps 648 mmHg 81%
    18:00 +12°C° 0 mm 2 mps 648 mmHg 87%
    19:00 +10°C° 0 mm 1 mps 647 mmHg 94%
    20:00 +10°C° 0 mm 1 mps 648 mmHg 93%
    21:00 +10°C° 0 mm 1 mps 648 mmHg 92%
    22:00 +10°C° 0 mm 1 mps 648 mmHg 92%
    23:00 +9°C° 0 mm 1 mps 648 mmHg 93%

    18 September, Wednesday

    Time Temperature Precipitation Wind Pressure Humidity
    00:00 +8°C° 0 mm 1 mps 647 mmHg 94%
    01:00 +7°C° 0 mm 1 mps 647 mmHg 94%
    02:00 +7°C° 0 mm 1 mps 647 mmHg 94%
    03:00 +6°C° 0 mm 1 mps 647 mmHg 94%
    04:00 +6°C° 0 mm 1 mps 647 mmHg 94%
    05:00 +6°C° 0 mm 1 mps 647 mmHg 94%
    06:00 +6°C° 0 mm 1 mps 647 mmHg 93%
    07:00 +6°C° 0 mm 1 mps 647 mmHg 93%
    08:00 +7°C° 0 mm 1 mps 647 mmHg 88%
    09:00 +8°C° 0 mm 1 mps 648 mmHg 83%
    10:00 +10°C° 0 mm 1 mps 648 mmHg 78%
    11:00 +10°C° 0 mm 2 mps 648 mmHg 73%
    12:00 +12°C° 0 mm 2 mps 648 mmHg 68%
    13:00 +13°C° 0 mm 2 mps 648 mmHg 64%
    14:00 +11°C° 0 mm 3 mps 648 mmHg 65%
    15:00 +11°C° 0 mm 3 mps 648 mmHg 66%
    16:00 +11°C° 0 mm 3 mps 648 mmHg 67%
    17:00 +9°C° 0 mm 3 mps 647 mmHg 73%
    18:00 +7°C° 0 mm 2 mps 647 mmHg 80%
    19:00 +6°C° 0 mm 2 mps 647 mmHg 86%
    20:00 +6°C° 0 mm 1 mps 647 mmHg 88%
    21:00 +5°C° 0 mm 1 mps 647 mmHg 90%
    22:00 +4°C° 0 mm 1 mps 648 mmHg 92%
    23:00 +4°C° 0 mm 1 mps 647 mmHg 92%

    19 September, Thursday

    Time Temperature Precipitation Wind Pressure Humidity
    00:00 +3°C° 0 mm 1 mps 647 mmHg 93%
    01:00 +3°C° 0 mm 1 mps 647 mmHg 93%
    02:00 +2°C° 0 mm 1 mps 647 mmHg 94%
    03:00 +2°C° 0 mm 1 mps 647 mmHg 94%
    04:00 +2°C° 0 mm 1 mps 647 mmHg 95%
    05:00 +2°C° 0 mm 1 mps 647 mmHg 94%
    06:00 +2°C° 0 mm 1 mps 647 mmHg 94%
    07:00 +2°C° 0 mm 1 mps 647 mmHg 93%
    08:00 +4°C° 0 mm 1 mps 648 mmHg 86%
    09:00 +4°C° 0 mm 2 mps 649 mmHg 78%
    10:00 +6°C° 0 mm 2 mps 649 mmHg 71%
    11:00 +7°C° 0 mm 2 mps 649 mmHg 66%
    12:00 +8°C° 0 mm 3 mps 650 mmHg 61%
    13:00 +9°C° 0 mm 3 mps 650 mmHg 56%
    14:00 +9°C° 0 mm 3 mps 650 mmHg 58%
    15:00 +7°C° 0 mm 4 mps 650 mmHg 60%
    16:00 +7°C° 0 mm 4 mps 650 mmHg 63%
    17:00 +5°C° 0 mm 3 mps 650 mmHg 70%
    18:00 +4°C° 0 mm 3 mps 650 mmHg 77%
    19:00 +3°C° 0 mm 2 mps 650 mmHg 85%
    20:00 +2°C° 0 mm 2 mps 650 mmHg 87%
    21:00 +1°C° 0 mm 2 mps 650 mmHg 88%
    22:00 +2°C° 0 mm 1 mps 650 mmHg 90%
    23:00 +1°C° 0 mm 1 mps 650 mmHg 91%

    20 September, Friday

    Time Temperature Precipitation Wind Pressure Humidity
    00:00 +1°C° 0 mm 1 mps 650 mmHg 91%
    01:00 +1°C° 0 mm 1 mps 650 mmHg 92%
    02:00 0°C° 0 mm 1 mps 650 mmHg 92%
    03:00 0°C° 0 mm 1 mps 650 mmHg 92%
    04:00 0°C° 0 mm 1 mps 650 mmHg 92%
    05:00 0°C° 0 mm 1 mps 650 mmHg 89%
    06:00 0°C° 0 mm 1 mps 650 mmHg 87%
    07:00 +1°C° 0 mm 1 mps 650 mmHg 85%
    08:00 +3°C° 0 mm 1 mps 651 mmHg 74%
    09:00 +6°C° 0 mm 1 mps 652 mmHg 63%
    10:00 +7°C° 0 mm 2 mps 652 mmHg 51%
    11:00 +9°C° 0 mm 2 mps 653 mmHg 48%
    12:00 +10°C° 0 mm 2 mps 653 mmHg 45%
    13:00 +12°C° 0 mm 2 mps 653 mmHg 42%
    14:00 +12°C° 0 mm 2 mps 653 mmHg 46%
    15:00 +10°C° 0 mm 2 mps 652 mmHg 49%
    16:00 +10°C° 0 mm 2 mps 652 mmHg 53%
    17:00 +8°C° 0 mm 2 mps 651 mmHg 62%
    18:00 +6°C° 0 mm 1 mps 651 mmHg 72%
    19:00 +4°C° 0 mm 1 mps 650 mmHg 81%
    20:00 +4°C° 0 mm 1 mps 650 mmHg 82%
    21:00 +3°C° 0 mm 1 mps 651 mmHg 83%
    22:00 +3°C° 0 mm 1 mps 651 mmHg 84%
    23:00 +3°C° 0 mm 1 mps 651 mmHg 84%
    Show more